Year,Month,Day,Hour,Minute,Value (Times are PST for windgust in km/hr)
2010,11,15,00,00,6.40
2010,11,15,00,01,6.40
2010,11,15,00,02,4.80
2010,11,15,00,03,8.10
2010,11,15,00,04,16.10
2010,11,15,00,05,17.70
2010,11,15,00,06,14.50
2010,11,15,00,07,11.30
2010,11,15,00,08,11.30
2010,11,15,00,09,9.60
2010,11,15,00,10,8.10
2010,11,15,00,11,9.60
2010,11,15,00,12,11.30
2010,11,15,00,13,9.60
2010,11,15,00,14,8.10
2010,11,15,00,15,9.60
2010,11,15,00,16,6.40
2010,11,15,00,17,11.30
2010,11,15,00,18,9.60
2010,11,15,00,19,8.10
2010,11,15,00,20,8.10
2010,11,15,00,21,3.20
2010,11,15,00,22,3.20
2010,11,15,00,23,4.80
2010,11,15,00,24,1.60
2010,11,15,00,25,3.20
2010,11,15,00,26,3.20
2010,11,15,00,27,4.80
2010,11,15,00,28,3.20
2010,11,15,00,29,6.40
2010,11,15,00,30,3.20
2010,11,15,00,31,6.40
2010,11,15,00,32,3.20
2010,11,15,00,33,6.40
2010,11,15,00,34,8.10
2010,11,15,00,35,8.10
2010,11,15,00,36,11.30
2010,11,15,00,37,11.30
2010,11,15,00,38,6.40
2010,11,15,00,39,6.40
2010,11,15,00,40,4.80
2010,11,15,00,41,6.40
2010,11,15,00,42,8.10
2010,11,15,00,43,6.40
2010,11,15,00,44,6.40
2010,11,15,00,45,14.50
2010,11,15,00,46,6.40
2010,11,15,00,47,6.40
2010,11,15,00,48,4.80
2010,11,15,00,49,6.40
2010,11,15,00,50,8.10
2010,11,15,00,51,11.30
2010,11,15,00,52,9.60
2010,11,15,00,53,8.10
2010,11,15,00,54,8.10
2010,11,15,00,55,8.10
2010,11,15,00,56,8.10
2010,11,15,00,57,8.10
2010,11,15,00,58,12.90
2010,11,15,00,59,9.60
2010,11,15,01,00,6.40
2010,11,15,01,01,6.40
2010,11,15,01,02,6.40
2010,11,15,01,03,9.60
2010,11,15,01,04,9.60
2010,11,15,01,05,11.30
2010,11,15,01,06,16.10
2010,11,15,01,07,11.30
2010,11,15,01,08,8.10
2010,11,15,01,09,8.10
2010,11,15,01,10,6.40
2010,11,15,01,11,8.10
2010,11,15,01,12,9.60
2010,11,15,01,13,6.40
2010,11,15,01,14,8.10
2010,11,15,01,15,8.10
2010,11,15,01,16,11.30
2010,11,15,01,17,8.10
2010,11,15,01,18,8.10
2010,11,15,01,19,16.10
2010,11,15,01,20,16.10
2010,11,15,01,21,12.90
2010,11,15,01,22,6.40
2010,11,15,01,23,11.30
2010,11,15,01,24,8.10
2010,11,15,01,25,14.50
2010,11,15,01,26,19.30
2010,11,15,01,27,14.50
2010,11,15,01,28,6.40
2010,11,15,01,29,8.10
2010,11,15,01,30,8.10
2010,11,15,01,31,8.10
2010,11,15,01,32,8.10
2010,11,15,01,33,9.60
2010,11,15,01,34,8.10
2010,11,15,01,35,9.60
2010,11,15,01,36,9.60
2010,11,15,01,37,3.20
2010,11,15,01,38,1.60
2010,11,15,01,39,12.90
2010,11,15,01,40,16.10
2010,11,15,01,41,17.70
2010,11,15,01,42,22.50
2010,11,15,01,43,14.50
2010,11,15,01,44,8.10
2010,11,15,01,45,4.80
2010,11,15,01,46,9.60
2010,11,15,01,47,14.50
2010,11,15,01,48,12.90
2010,11,15,01,49,8.10
2010,11,15,01,50,16.10
2010,11,15,01,51,11.30
2010,11,15,01,52,6.40
2010,11,15,01,53,12.90
2010,11,15,01,54,16.10
2010,11,15,01,55,11.30
2010,11,15,01,56,8.10
2010,11,15,01,57,11.30
2010,11,15,01,58,4.80
2010,11,15,01,59,8.10
2010,11,15,02,00,9.60
2010,11,15,02,01,8.10
2010,11,15,02,02,20.90
2010,11,15,02,03,9.60
2010,11,15,02,04,8.10
2010,11,15,02,05,9.60
2010,11,15,02,06,19.30
2010,11,15,02,07,11.30
2010,11,15,02,08,9.60
2010,11,15,02,09,8.10
2010,11,15,02,10,9.60
2010,11,15,02,11,6.40
2010,11,15,02,12,4.80
2010,11,15,02,13,6.40
2010,11,15,02,14,6.40
2010,11,15,02,15,4.80
2010,11,15,02,16,11.30
2010,11,15,02,17,9.60
2010,11,15,02,18,17.70
2010,11,15,02,19,11.30
2010,11,15,02,20,19.30
2010,11,15,02,21,9.60
2010,11,15,02,22,20.90
2010,11,15,02,23,11.30
2010,11,15,02,24,11.30
2010,11,15,02,25,17.70
2010,11,15,02,26,8.10
2010,11,15,02,27,11.30
2010,11,15,02,28,8.10
2010,11,15,02,29,9.60
2010,11,15,02,30,17.70
2010,11,15,02,31,19.30
2010,11,15,02,32,16.10
2010,11,15,02,33,14.50
2010,11,15,02,34,11.30
2010,11,15,02,35,20.90
2010,11,15,02,36,16.10
2010,11,15,02,37,11.30
2010,11,15,02,38,8.10
2010,11,15,02,39,12.90
2010,11,15,02,40,14.50
2010,11,15,02,41,6.40
2010,11,15,02,42,8.10
2010,11,15,02,43,11.30
2010,11,15,02,44,20.90
2010,11,15,02,45,8.10
2010,11,15,02,46,12.90
2010,11,15,02,47,11.30
2010,11,15,02,48,14.50
2010,11,15,02,49,9.60
2010,11,15,02,50,16.10
2010,11,15,02,51,14.50
2010,11,15,02,52,16.10
2010,11,15,02,53,8.10
2010,11,15,02,54,11.30
2010,11,15,02,55,20.90
2010,11,15,02,56,14.50
2010,11,15,02,57,14.50
2010,11,15,02,58,12.90
2010,11,15,02,59,9.60
2010,11,15,03,00,8.10
2010,11,15,03,01,14.50
2010,11,15,03,02,16.10
2010,11,15,03,03,11.30
2010,11,15,03,04,16.10
2010,11,15,03,05,19.30
2010,11,15,03,06,22.50
2010,11,15,03,07,24.20
2010,11,15,03,08,12.90
2010,11,15,03,09,25.70
2010,11,15,03,10,14.50
2010,11,15,03,11,17.70
2010,11,15,03,12,8.10
2010,11,15,03,13,8.10
2010,11,15,03,14,22.50
2010,11,15,03,15,20.90
2010,11,15,03,16,19.30
2010,11,15,03,17,16.10
2010,11,15,03,18,19.30
2010,11,15,03,19,27.40
2010,11,15,03,20,11.30
2010,11,15,03,21,8.10
2010,11,15,03,22,14.50
2010,11,15,03,23,16.10
2010,11,15,03,24,11.30
2010,11,15,03,25,11.30
2010,11,15,03,26,9.60
2010,11,15,03,27,8.10
2010,11,15,03,28,6.40
2010,11,15,03,29,9.60
2010,11,15,03,30,6.40
2010,11,15,03,31,8.10
2010,11,15,03,32,11.30
2010,11,15,03,33,16.10
2010,11,15,03,34,16.10
2010,11,15,03,35,9.60
2010,11,15,03,36,11.30
2010,11,15,03,37,19.30
2010,11,15,03,38,12.90
2010,11,15,03,39,14.50
2010,11,15,03,40,19.30
2010,11,15,03,41,16.10
2010,11,15,03,42,6.40
2010,11,15,03,43,8.10
2010,11,15,03,44,16.10
2010,11,15,03,45,11.30
2010,11,15,03,46,9.60
2010,11,15,03,47,17.70
2010,11,15,03,48,20.90
2010,11,15,03,49,19.30
2010,11,15,03,50,14.50
2010,11,15,03,51,14.50
2010,11,15,03,52,8.10
2010,11,15,03,53,11.30
2010,11,15,03,54,9.60
2010,11,15,03,55,14.50
2010,11,15,03,56,17.70
2010,11,15,03,57,20.90
2010,11,15,03,58,11.30
2010,11,15,03,59,16.10
2010,11,15,04,00,20.90
2010,11,15,04,01,12.90
2010,11,15,04,02,17.70
2010,11,15,04,03,12.90
2010,11,15,04,04,19.30
2010,11,15,04,05,16.10
2010,11,15,04,06,14.50
2010,11,15,04,07,9.60
2010,11,15,04,08,17.70
2010,11,15,04,09,8.10
2010,11,15,04,10,9.60
2010,11,15,04,11,17.70
2010,11,15,04,12,17.70
2010,11,15,04,13,12.90
2010,11,15,04,14,11.30
2010,11,15,04,15,16.10
2010,11,15,04,16,9.60
2010,11,15,04,17,9.60
2010,11,15,04,18,8.10
2010,11,15,04,19,4.80
2010,11,15,04,20,8.10
2010,11,15,04,21,9.60
2010,11,15,04,22,8.10
2010,11,15,04,23,14.50
2010,11,15,04,24,17.70
2010,11,15,04,25,11.30
2010,11,15,04,26,9.60
2010,11,15,04,27,8.10
2010,11,15,04,28,6.40
2010,11,15,04,29,11.30
2010,11,15,04,30,12.90
2010,11,15,04,31,11.30
2010,11,15,04,32,11.30
2010,11,15,04,33,17.70
2010,11,15,04,34,16.10
2010,11,15,04,35,14.50
2010,11,15,04,36,17.70
2010,11,15,04,37,11.30
2010,11,15,04,38,16.10
2010,11,15,04,39,14.50
2010,11,15,04,40,9.60
2010,11,15,04,41,16.10
2010,11,15,04,42,16.10
2010,11,15,04,43,11.30
2010,11,15,04,44,6.40
2010,11,15,04,45,11.30
2010,11,15,04,46,9.60
2010,11,15,04,47,11.30
2010,11,15,04,48,17.70
2010,11,15,04,49,14.50
2010,11,15,04,50,19.30
2010,11,15,04,51,19.30
2010,11,15,04,52,14.50
2010,11,15,04,53,9.60
2010,11,15,04,54,14.50
2010,11,15,04,55,16.10
2010,11,15,04,56,19.30
2010,11,15,04,57,11.30
2010,11,15,04,58,17.70
2010,11,15,04,59,16.10
2010,11,15,05,00,9.60
2010,11,15,05,01,6.40
2010,11,15,05,02,8.10
2010,11,15,05,03,6.40
2010,11,15,05,04,14.50
2010,11,15,05,05,14.50
2010,11,15,05,06,14.50
2010,11,15,05,07,6.40
2010,11,15,05,08,4.80
2010,11,15,05,09,4.80
2010,11,15,05,10,6.40
2010,11,15,05,11,3.20
2010,11,15,05,12,3.20
2010,11,15,05,13,1.60
2010,11,15,05,14,16.10
2010,11,15,05,15,11.30
2010,11,15,05,16,14.50
2010,11,15,05,17,6.40
2010,11,15,05,18,4.80
2010,11,15,05,19,22.50
2010,11,15,05,20,16.10
2010,11,15,05,21,9.60
2010,11,15,05,22,11.30
2010,11,15,05,23,9.60
2010,11,15,05,24,11.30
2010,11,15,05,25,8.10
2010,11,15,05,26,8.10
2010,11,15,05,27,6.40
2010,11,15,05,28,17.70
2010,11,15,05,29,14.50
2010,11,15,05,30,14.50
2010,11,15,05,31,6.40
2010,11,15,05,32,9.60
2010,11,15,05,33,8.10
2010,11,15,05,34,6.40
2010,11,15,05,35,16.10
2010,11,15,05,36,19.30
2010,11,15,05,37,22.50
2010,11,15,05,38,14.50
2010,11,15,05,39,9.60
2010,11,15,05,40,8.10
2010,11,15,05,41,9.60
2010,11,15,05,42,11.30
2010,11,15,05,43,17.70
2010,11,15,05,44,25.70
2010,11,15,05,45,11.30
2010,11,15,05,46,17.70
2010,11,15,05,47,11.30
2010,11,15,05,48,20.90
2010,11,15,05,49,17.70
2010,11,15,05,50,14.50
2010,11,15,05,51,9.60
2010,11,15,05,52,8.10
2010,11,15,05,53,9.60
2010,11,15,05,54,11.30
2010,11,15,05,55,11.30
2010,11,15,05,56,11.30
2010,11,15,05,57,16.10
2010,11,15,05,58,6.40
2010,11,15,05,59,6.40
2010,11,15,06,00,8.10
2010,11,15,06,01,11.30
2010,11,15,06,02,9.60
2010,11,15,06,03,14.50
2010,11,15,06,04,6.40
2010,11,15,06,05,8.10
2010,11,15,06,06,11.30
2010,11,15,06,07,19.30
2010,11,15,06,08,9.60
2010,11,15,06,09,6.40
2010,11,15,06,10,16.10
2010,11,15,06,11,17.70
2010,11,15,06,12,8.10
2010,11,15,06,13,14.50
2010,11,15,06,14,4.80
2010,11,15,06,15,11.30
2010,11,15,06,16,6.40
2010,11,15,06,17,9.60
2010,11,15,06,18,16.10
2010,11,15,06,19,8.10
2010,11,15,06,20,6.40
2010,11,15,06,21,8.10
2010,11,15,06,22,3.20
2010,11,15,06,23,8.10
2010,11,15,06,24,9.60
2010,11,15,06,25,6.40
2010,11,15,06,26,6.40
2010,11,15,06,27,6.40
2010,11,15,06,28,9.60
2010,11,15,06,29,9.60
2010,11,15,06,30,4.80
2010,11,15,06,31,8.10
2010,11,15,06,32,12.90
2010,11,15,06,33,11.30
2010,11,15,06,34,8.10
2010,11,15,06,35,6.40
2010,11,15,06,36,9.60
2010,11,15,06,37,11.30
2010,11,15,06,38,8.10
2010,11,15,06,39,24.20
2010,11,15,06,40,8.10
2010,11,15,06,41,9.60
2010,11,15,06,42,9.60
2010,11,15,06,43,14.50
2010,11,15,06,44,14.50
2010,11,15,06,45,11.30
2010,11,15,06,46,11.30
2010,11,15,06,47,16.10
2010,11,15,06,48,17.70
2010,11,15,06,49,9.60
2010,11,15,06,50,8.10
2010,11,15,06,51,11.30
2010,11,15,06,52,6.40
2010,11,15,06,53,11.30
2010,11,15,06,54,14.50
2010,11,15,06,55,16.10
2010,11,15,06,56,11.30
2010,11,15,06,57,9.60
2010,11,15,06,58,8.10
2010,11,15,06,59,11.30
2010,11,15,07,00,9.60
2010,11,15,07,01,11.30
2010,11,15,07,02,17.70
2010,11,15,07,03,11.30
2010,11,15,07,04,16.10
2010,11,15,07,05,11.30
2010,11,15,07,06,11.30
2010,11,15,07,07,9.60
2010,11,15,07,08,16.10
2010,11,15,07,09,11.30
2010,11,15,07,10,14.50
2010,11,15,07,11,11.30
2010,11,15,07,12,9.60
2010,11,15,07,13,9.60
2010,11,15,07,14,9.60
2010,11,15,07,15,8.10
2010,11,15,07,16,11.30
2010,11,15,07,17,8.10
2010,11,15,07,18,12.90
2010,11,15,07,19,11.30
2010,11,15,07,20,16.10
2010,11,15,07,21,9.60
2010,11,15,07,22,9.60
2010,11,15,07,23,6.40
2010,11,15,07,24,4.80
2010,11,15,07,25,6.40
2010,11,15,07,26,4.80
2010,11,15,07,27,9.60
2010,11,15,07,28,9.60
2010,11,15,07,29,8.10
2010,11,15,07,30,9.60
2010,11,15,07,31,19.30
2010,11,15,07,32,9.60
2010,11,15,07,33,6.40
2010,11,15,07,34,8.10
2010,11,15,07,35,16.10
2010,11,15,07,36,9.60
2010,11,15,07,37,19.30
2010,11,15,07,38,16.10
2010,11,15,07,39,9.60
2010,11,15,07,40,6.40
2010,11,15,07,41,9.60
2010,11,15,07,42,8.10
2010,11,15,07,43,8.10
2010,11,15,07,44,8.10
2010,11,15,07,45,6.40
2010,11,15,07,46,6.40
2010,11,15,07,47,12.90
2010,11,15,07,48,17.70
2010,11,15,07,49,20.90
2010,11,15,07,50,8.10
2010,11,15,07,51,20.90
2010,11,15,07,52,17.70
2010,11,15,07,53,12.90
2010,11,15,07,54,11.30
2010,11,15,07,55,6.40
2010,11,15,07,56,8.10
2010,11,15,07,57,11.30
2010,11,15,07,58,4.80
2010,11,15,07,59,6.40
2010,11,15,08,00,14.50
2010,11,15,08,01,6.40
2010,11,15,08,02,4.80
2010,11,15,08,03,4.80
2010,11,15,08,04,9.60
2010,11,15,08,05,8.10
2010,11,15,08,06,8.10
2010,11,15,08,07,8.10
2010,11,15,08,08,4.80
2010,11,15,08,09,11.30
2010,11,15,08,10,8.10
2010,11,15,08,11,8.10
2010,11,15,08,12,4.80
2010,11,15,08,13,4.80
2010,11,15,08,14,6.40
2010,11,15,08,15,8.10
2010,11,15,08,16,6.40
2010,11,15,08,17,4.80
2010,11,15,08,18,6.40
2010,11,15,08,19,3.20
2010,11,15,08,20,8.10
2010,11,15,08,21,8.10
2010,11,15,08,22,4.80
2010,11,15,08,23,6.40
2010,11,15,08,24,4.80
2010,11,15,08,25,4.80
2010,11,15,08,26,4.80
2010,11,15,08,27,4.80
2010,11,15,08,28,4.80
2010,11,15,08,29,8.10
2010,11,15,08,30,4.80
2010,11,15,08,31,4.80
2010,11,15,08,32,6.40
2010,11,15,08,33,4.80
2010,11,15,08,34,8.10
2010,11,15,08,35,9.60
2010,11,15,08,36,6.40
2010,11,15,08,37,4.80
2010,11,15,08,38,6.40
2010,11,15,08,39,9.60
2010,11,15,08,40,6.40
2010,11,15,08,41,3.20
2010,11,15,08,42,1.60
2010,11,15,08,43,4.80
2010,11,15,08,44,3.20
2010,11,15,08,45,3.20
2010,11,15,08,46,3.20
2010,11,15,08,47,1.60
2010,11,15,08,48,3.20
2010,11,15,08,49,6.40
2010,11,15,08,50,6.40
2010,11,15,08,51,4.80
2010,11,15,08,52,3.20
2010,11,15,08,53,6.40
2010,11,15,08,54,6.40
2010,11,15,08,55,6.40
2010,11,15,08,56,8.10
2010,11,15,08,57,1.60
2010,11,15,08,59,1.60
2010,11,15,09,00,1.60
2010,11,15,09,01,1.60
2010,11,15,09,03,1.60
2010,11,15,09,04,1.60
2010,11,15,09,05,9.60
2010,11,15,09,06,4.80
2010,11,15,09,09,1.60
2010,11,15,09,11,4.80
2010,11,15,09,12,4.80
2010,11,15,09,13,1.60
2010,11,15,09,17,6.40
2010,11,15,09,18,3.20
2010,11,15,09,19,4.80
2010,11,15,09,20,1.60
2010,11,15,09,21,11.30
2010,11,15,09,22,6.40
2010,11,15,09,23,9.60
2010,11,15,09,24,4.80
2010,11,15,09,25,8.10
2010,11,15,09,26,6.40
2010,11,15,09,27,4.80
2010,11,15,09,28,4.80
2010,11,15,09,29,4.80
2010,11,15,09,30,4.80
2010,11,15,09,31,6.40
2010,11,15,09,32,6.40
2010,11,15,09,33,4.80
2010,11,15,09,34,3.20
2010,11,15,09,40,3.20
2010,11,15,09,41,1.60
2010,11,15,09,48,3.20
2010,11,15,09,49,3.20
2010,11,15,09,50,1.60
2010,11,15,09,51,1.60
2010,11,15,09,52,1.60
2010,11,15,09,53,3.20
2010,11,15,09,54,3.20
2010,11,15,09,55,3.20
2010,11,15,09,56,1.60
2010,11,15,09,57,1.60
2010,11,15,09,58,1.60
2010,11,15,09,59,1.60
2010,11,15,10,00,1.60
2010,11,15,10,01,3.20
2010,11,15,10,02,3.20
2010,11,15,10,03,4.80
2010,11,15,10,04,3.20
2010,11,15,10,05,1.60
2010,11,15,10,06,1.60
2010,11,15,10,07,1.60
2010,11,15,10,08,1.60
2010,11,15,10,09,1.60
2010,11,15,10,14,3.20
2010,11,15,10,15,1.60
2010,11,15,10,17,1.60
2010,11,15,10,18,1.60
2010,11,15,10,19,1.60
2010,11,15,10,20,1.60
2010,11,15,10,22,1.60
2010,11,15,10,23,3.20
2010,11,15,10,24,3.20
2010,11,15,10,25,3.20
2010,11,15,10,26,1.60
2010,11,15,10,27,1.60
2010,11,15,10,30,3.20
2010,11,15,10,31,1.60
2010,11,15,10,33,1.60
2010,11,15,10,35,3.20
2010,11,15,10,36,3.20
2010,11,15,10,37,3.20
2010,11,15,10,38,1.60
2010,11,15,10,39,4.80
2010,11,15,10,40,4.80
2010,11,15,10,41,4.80
2010,11,15,10,42,4.80
2010,11,15,10,43,4.80
2010,11,15,10,44,3.20
2010,11,15,10,45,4.80
2010,11,15,10,46,4.80
2010,11,15,10,47,4.80
2010,11,15,10,48,8.10
2010,11,15,10,49,4.80
2010,11,15,10,50,8.10
2010,11,15,10,51,4.80
2010,11,15,10,52,6.40
2010,11,15,10,53,4.80
2010,11,15,10,54,3.20
2010,11,15,10,57,1.60
2010,11,15,10,58,4.80
2010,11,15,10,59,6.40
2010,11,15,11,00,3.20
2010,11,15,11,01,6.40
2010,11,15,11,02,6.40
2010,11,15,11,03,6.40
2010,11,15,11,04,4.80
2010,11,15,11,05,6.40
2010,11,15,11,06,6.40
2010,11,15,11,07,1.60
2010,11,15,11,08,4.80
2010,11,15,11,09,3.20
2010,11,15,11,10,4.80
2010,11,15,11,11,1.60
2010,11,15,11,12,3.20
2010,11,15,11,13,4.80
2010,11,15,11,14,6.40
2010,11,15,11,15,3.20
2010,11,15,11,16,3.20
2010,11,15,11,17,1.60
2010,11,15,11,18,1.60
2010,11,15,11,19,3.20
2010,11,15,11,22,3.20
2010,11,15,11,23,1.60
2010,11,15,11,26,3.20
2010,11,15,11,27,4.80
2010,11,15,11,28,1.60
2010,11,15,11,29,1.60
2010,11,15,11,30,1.60
2010,11,15,11,31,4.80
2010,11,15,11,32,4.80
2010,11,15,11,33,4.80
2010,11,15,11,34,3.20
2010,11,15,11,35,4.80
2010,11,15,11,36,3.20
2010,11,15,11,37,6.40
2010,11,15,11,38,3.20
2010,11,15,11,39,8.10
2010,11,15,11,40,6.40
2010,11,15,11,41,8.10
2010,11,15,11,42,4.80
2010,11,15,11,43,4.80
2010,11,15,11,44,3.20
2010,11,15,11,45,6.40
2010,11,15,11,46,3.20
2010,11,15,11,47,6.40
2010,11,15,11,48,11.30
2010,11,15,11,49,9.60
2010,11,15,11,50,11.30
2010,11,15,11,51,11.30
2010,11,15,11,52,8.10
2010,11,15,11,53,8.10
2010,11,15,11,54,6.40
2010,11,15,11,55,3.20
2010,11,15,11,56,16.10
2010,11,15,11,57,17.70
2010,11,15,11,58,14.50
2010,11,15,11,59,4.80
2010,11,15,12,00,9.60
2010,11,15,12,01,17.70
2010,11,15,12,02,17.70
2010,11,15,12,03,11.30
2010,11,15,12,04,17.70
2010,11,15,12,05,9.60
2010,11,15,12,06,16.10
2010,11,15,12,07,14.50
2010,11,15,12,08,14.50
2010,11,15,12,09,9.60
2010,11,15,12,10,12.90
2010,11,15,12,11,8.10
2010,11,15,12,12,8.10
2010,11,15,12,13,8.10
2010,11,15,12,14,9.60
2010,11,15,12,15,11.30
2010,11,15,12,16,8.10
2010,11,15,12,17,6.40
2010,11,15,12,18,4.80
2010,11,15,12,19,14.50
2010,11,15,12,20,22.50
2010,11,15,12,21,8.10
2010,11,15,12,22,8.10
2010,11,15,12,23,8.10
2010,11,15,12,24,3.20
2010,11,15,12,25,8.10
2010,11,15,12,26,9.60
2010,11,15,12,27,11.30
2010,11,15,12,28,11.30
2010,11,15,12,29,9.60
2010,11,15,12,30,12.90
2010,11,15,12,31,24.20
2010,11,15,12,32,16.10
2010,11,15,12,33,8.10
2010,11,15,12,34,17.70
2010,11,15,12,35,19.30
2010,11,15,12,36,20.90
2010,11,15,12,37,22.50
2010,11,15,12,38,29.00
2010,11,15,12,39,25.70
2010,11,15,12,40,14.50
2010,11,15,12,41,19.30
2010,11,15,12,42,16.10
2010,11,15,12,43,17.70
2010,11,15,12,44,11.30
2010,11,15,12,45,24.20
2010,11,15,12,46,14.50
2010,11,15,12,47,16.10
2010,11,15,12,48,29.00
2010,11,15,12,49,16.10
2010,11,15,12,50,16.10
2010,11,15,12,51,33.80
2010,11,15,12,52,19.30
2010,11,15,12,53,17.70
2010,11,15,12,54,20.90
2010,11,15,12,55,9.60
2010,11,15,12,56,11.30
2010,11,15,12,57,22.50
2010,11,15,12,58,22.50
2010,11,15,12,59,25.70
2010,11,15,13,00,20.90
2010,11,15,13,01,25.70
2010,11,15,13,02,29.00
2010,11,15,13,03,25.70
2010,11,15,13,04,22.50
2010,11,15,13,05,11.30
2010,11,15,13,06,12.90
2010,11,15,13,07,20.90
2010,11,15,13,08,11.30
2010,11,15,13,09,22.50
2010,11,15,13,10,16.10
2010,11,15,13,11,17.70
2010,11,15,13,12,16.10
2010,11,15,13,13,24.20
2010,11,15,13,14,29.00
2010,11,15,13,15,14.50
2010,11,15,13,16,20.90
2010,11,15,13,17,20.90
2010,11,15,13,18,27.40
2010,11,15,13,19,30.60
2010,11,15,13,20,25.70
2010,11,15,13,21,17.70
2010,11,15,13,22,16.10
2010,11,15,13,23,25.70
2010,11,15,13,24,38.60
2010,11,15,13,25,37.00
2010,11,15,13,26,27.40
2010,11,15,13,27,29.00
2010,11,15,13,28,30.60
2010,11,15,13,29,17.70
2010,11,15,13,30,27.40
2010,11,15,13,31,24.20
2010,11,15,13,32,25.70
2010,11,15,13,33,14.50
2010,11,15,13,34,16.10
2010,11,15,13,35,17.70
2010,11,15,13,36,11.30
2010,11,15,13,37,14.50
2010,11,15,13,38,20.90
2010,11,15,13,39,9.60
2010,11,15,13,40,14.50
2010,11,15,13,41,19.30
2010,11,15,13,42,17.70
2010,11,15,13,43,14.50
2010,11,15,13,44,6.40
2010,11,15,13,45,22.50
2010,11,15,13,46,27.40
2010,11,15,13,47,24.20
2010,11,15,13,48,14.50
2010,11,15,13,49,14.50
2010,11,15,13,50,14.50
2010,11,15,13,51,8.10
2010,11,15,13,52,19.30
2010,11,15,13,53,20.90
2010,11,15,13,54,16.10
2010,11,15,13,55,19.30
2010,11,15,13,56,19.30
2010,11,15,13,57,16.10
2010,11,15,13,58,25.70
2010,11,15,13,59,24.20
2010,11,15,14,00,14.50
2010,11,15,14,01,19.30
2010,11,15,14,02,16.10
2010,11,15,14,03,11.30
2010,11,15,14,04,19.30
2010,11,15,14,05,11.30
2010,11,15,14,06,6.40
2010,11,15,14,07,9.60
2010,11,15,14,08,14.50
2010,11,15,14,09,14.50
2010,11,15,14,10,8.10
2010,11,15,14,11,12.90
2010,11,15,14,12,14.50
2010,11,15,14,13,11.30
2010,11,15,14,14,9.60
2010,11,15,14,15,25.70
2010,11,15,14,16,17.70
2010,11,15,14,17,19.30
2010,11,15,14,18,12.90
2010,11,15,14,19,29.00
2010,11,15,14,20,24.20
2010,11,15,14,21,24.20
2010,11,15,14,22,27.40
2010,11,15,14,23,24.20
2010,11,15,14,24,17.70
2010,11,15,14,25,27.40
2010,11,15,14,26,24.20
2010,11,15,14,27,17.70
2010,11,15,14,28,17.70
2010,11,15,14,29,16.10
2010,11,15,14,30,27.40
2010,11,15,14,31,19.30
2010,11,15,14,32,17.70
2010,11,15,14,33,9.60
2010,11,15,14,34,9.60
2010,11,15,14,35,16.10
2010,11,15,14,36,11.30
2010,11,15,14,37,8.10
2010,11,15,14,38,11.30
2010,11,15,14,39,9.60
2010,11,15,14,40,11.30
2010,11,15,14,41,9.60
2010,11,15,14,42,14.50
2010,11,15,14,43,8.10
2010,11,15,14,44,16.10
2010,11,15,14,45,14.50
2010,11,15,14,46,9.60
2010,11,15,14,47,24.20
2010,11,15,14,48,16.10
2010,11,15,14,49,17.70
2010,11,15,14,50,14.50
2010,11,15,14,51,14.50
2010,11,15,14,52,22.50
2010,11,15,14,53,29.00
2010,11,15,14,54,25.70
2010,11,15,14,55,33.80
2010,11,15,14,56,30.60
2010,11,15,14,57,16.10
2010,11,15,14,58,24.20
2010,11,15,14,59,19.30
2010,11,15,15,00,25.70
2010,11,15,15,01,24.20
2010,11,15,15,02,19.30
2010,11,15,15,03,20.90
2010,11,15,15,04,24.20
2010,11,15,15,05,22.50
2010,11,15,15,06,25.70
2010,11,15,15,07,33.80
2010,11,15,15,08,30.60
2010,11,15,15,09,29.00
2010,11,15,15,10,32.20
2010,11,15,15,11,32.20
2010,11,15,15,12,41.80
2010,11,15,15,13,27.40
2010,11,15,15,14,33.80
2010,11,15,15,15,38.60
2010,11,15,15,16,30.60
2010,11,15,15,17,37.00
2010,11,15,15,18,30.60
2010,11,15,15,19,33.80
2010,11,15,15,20,35.40
2010,11,15,15,21,35.40
2010,11,15,15,22,37.00
2010,11,15,15,23,27.40
2010,11,15,15,24,33.80
2010,11,15,15,25,41.80
2010,11,15,15,26,27.40
2010,11,15,15,27,37.00
2010,11,15,15,28,22.50
2010,11,15,15,29,40.20
2010,11,15,15,30,32.20
2010,11,15,15,31,38.60
2010,11,15,15,32,27.40
2010,11,15,15,33,40.20
2010,11,15,15,34,43.50
2010,11,15,15,35,38.60
2010,11,15,15,36,32.20
2010,11,15,15,37,29.00
2010,11,15,15,38,29.00
2010,11,15,15,39,25.70
2010,11,15,15,40,35.40
2010,11,15,15,41,33.80
2010,11,15,15,42,24.20
2010,11,15,15,43,25.70
2010,11,15,15,44,38.60
2010,11,15,15,45,37.00
2010,11,15,15,46,43.50
2010,11,15,15,47,54.70
2010,11,15,15,48,30.60
2010,11,15,15,49,32.20
2010,11,15,15,50,24.20
2010,11,15,15,51,41.80
2010,11,15,15,52,32.20
2010,11,15,15,53,24.20
2010,11,15,15,54,37.00
2010,11,15,15,55,25.70
2010,11,15,15,56,49.90
2010,11,15,15,57,27.40
2010,11,15,15,58,27.40
2010,11,15,15,59,37.00
2010,11,15,16,00,35.40
2010,11,15,16,01,41.80
2010,11,15,16,02,45.10
2010,11,15,16,03,48.30
2010,11,15,16,04,41.80
2010,11,15,16,05,33.80
2010,11,15,16,06,32.20
2010,11,15,16,07,35.40
2010,11,15,16,08,37.00
2010,11,15,16,09,29.00
2010,11,15,16,10,38.60
2010,11,15,16,11,43.50
2010,11,15,16,12,29.00
2010,11,15,16,13,25.70
2010,11,15,16,14,51.50
2010,11,15,16,15,45.10
2010,11,15,16,16,30.60
2010,11,15,16,17,37.00
2010,11,15,16,18,38.60
2010,11,15,16,19,41.80
2010,11,15,16,20,35.40
2010,11,15,16,21,53.10
2010,11,15,16,22,32.20
2010,11,15,16,23,27.40
2010,11,15,16,24,35.40
2010,11,15,16,25,43.50
2010,11,15,16,26,38.60
2010,11,15,16,27,40.20
2010,11,15,16,28,45.10
2010,11,15,16,29,48.30
2010,11,15,16,30,48.30
2010,11,15,16,31,35.40
2010,11,15,16,32,46.70
2010,11,15,16,33,46.70
2010,11,15,16,34,27.40
2010,11,15,16,35,24.20
2010,11,15,16,36,25.70
2010,11,15,16,37,40.20
2010,11,15,16,38,19.30
2010,11,15,16,39,38.60
2010,11,15,16,40,37.00
2010,11,15,16,41,30.60
2010,11,15,16,42,27.40
2010,11,15,16,43,17.70
2010,11,15,16,44,32.20
2010,11,15,16,45,25.70
2010,11,15,16,46,25.70
2010,11,15,16,47,22.50
2010,11,15,16,48,24.20
2010,11,15,16,49,27.40
2010,11,15,16,50,35.40
2010,11,15,16,51,37.00
2010,11,15,16,52,19.30
2010,11,15,16,53,29.00
2010,11,15,16,54,51.50
2010,11,15,16,55,35.40
2010,11,15,16,56,38.60
2010,11,15,16,57,43.50
2010,11,15,16,58,25.70
2010,11,15,16,59,30.60
2010,11,15,17,00,33.80
2010,11,15,17,01,30.60
2010,11,15,17,02,30.60
2010,11,15,17,03,16.10
2010,11,15,17,04,40.20
2010,11,15,17,05,35.40
2010,11,15,17,06,24.20
2010,11,15,17,07,29.00
2010,11,15,17,08,41.80
2010,11,15,17,09,29.00
2010,11,15,17,10,27.40
2010,11,15,17,11,38.60
2010,11,15,17,12,35.40
2010,11,15,17,13,25.70
2010,11,15,17,14,27.40
2010,11,15,17,15,32.20
2010,11,15,17,16,30.60
2010,11,15,17,17,17.70
2010,11,15,17,18,25.70
2010,11,15,17,19,33.80
2010,11,15,17,20,25.70
2010,11,15,17,21,20.90
2010,11,15,17,22,37.00
2010,11,15,17,23,46.70
2010,11,15,17,24,22.50
2010,11,15,17,25,24.20
2010,11,15,17,26,29.00
2010,11,15,17,27,25.70
2010,11,15,17,28,25.70
2010,11,15,17,29,29.00
2010,11,15,17,30,40.20
2010,11,15,17,31,22.50
2010,11,15,17,32,22.50
2010,11,15,17,33,22.50
2010,11,15,17,34,24.20
2010,11,15,17,35,19.30
2010,11,15,17,36,17.70
2010,11,15,17,37,32.20
2010,11,15,17,38,37.00
2010,11,15,17,39,29.00
2010,11,15,17,40,16.10
2010,11,15,17,41,43.50
2010,11,15,17,42,32.20
2010,11,15,17,43,17.70
2010,11,15,17,44,17.70
2010,11,15,17,45,51.50
2010,11,15,17,46,29.00
2010,11,15,17,47,30.60
2010,11,15,17,48,46.70
2010,11,15,17,49,32.20
2010,11,15,17,50,19.30
2010,11,15,17,51,40.20
2010,11,15,17,52,32.20
2010,11,15,17,53,19.30
2010,11,15,17,54,32.20
2010,11,15,17,55,32.20
2010,11,15,17,56,48.30
2010,11,15,17,57,37.00
2010,11,15,17,58,29.00
2010,11,15,17,59,27.40
2010,11,15,18,00,20.90
2010,11,15,18,01,22.50
2010,11,15,18,02,35.40
2010,11,15,18,03,33.80
2010,11,15,18,04,35.40
2010,11,15,18,05,29.00
2010,11,15,18,06,22.50
2010,11,15,18,07,45.10
2010,11,15,18,08,35.40
2010,11,15,18,09,30.60
2010,11,15,18,10,27.40
2010,11,15,18,11,22.50
2010,11,15,18,12,27.40
2010,11,15,18,13,20.90
2010,11,15,18,14,30.60